| time (UTC) | temp F | wind direction | speed MPH | gust MPH | rain 1hr in | rain 24hr in | rain mn in | humidity % | barometer mb |
| 20260509230010 | 65 | 104 | 2.0 | 0.0 | 0.00 | 0.00 | 0.00 | 35 | 1003.6 |
| 20260509224508 | 65 | 68 | 1.0 | 0.0 | 0.00 | 0.00 | 0.00 | 36 | 1003.4 |
| 20260509223007 | 65 | 176 | 1.0 | 0.0 | 0.00 | 0.00 | 0.00 | 37 | 1003.2 |
| 20260509221505 | 65 | 138 | 1.0 | 0.0 | 0.00 | 0.00 | 0.00 | 39 | 1003.0 |
| 20260509220007 | 66 | 127 | 1.0 | 0.0 | 0.00 | 0.00 | 0.00 | 36 | 1002.9 |
| 20260509214501 | 68 | 166 | 2.0 | 0.0 | 0.00 | 0.00 | 0.00 | 36 | 1002.7 |
| 20260509213101 | 68 | 219 | 2.0 | 0.0 | 0.00 | 0.00 | 0.00 | 36 | 1002.4 |
| 20260509211602 | 70 | 74 | 1.0 | 0.0 | 0.00 | 0.00 | 0.00 | 36 | 1002.2 |
| 20260509210108 | 70 | 43 | 3.0 | 0.0 | 0.00 | 0.00 | 0.00 | 33 | 1002.1 |
| 20260509204556 | 71 | 110 | 2.0 | 0.0 | 0.00 | 0.00 | 0.00 | 34 | 1001.9 |
| 20260509203055 | 70 | 214 | 2.0 | 0.0 | 0.00 | 0.00 | 0.00 | 35 | 1001.9 |
| 20260509201554 | 70 | 161 | 2.0 | 0.0 | 0.00 | 0.00 | 0.00 | 35 | 1001.8 |
| 20260509200055 | 71 | 65 | 2.0 | 0.0 | 0.00 | 0.00 | 0.00 | 36 | 1001.6 |
| 20260509194550 | 70 | 185 | 2.0 | 0.0 | 0.00 | 0.00 | 0.00 | 37 | 1001.2 |
| 20260509193050 | 70 | 91 | 2.0 | 0.0 | 0.00 | 0.00 | 0.00 | 36 | 1001.2 |
| 20260509191548 | 70 | 93 | 2.0 | 0.0 | 0.00 | 0.00 | 0.00 | 38 | 1001.1 |
| 20260509190050 | 70 | 174 | 3.0 | 0.0 | 0.00 | 0.00 | 0.00 | 38 | 1000.9 |
| 20260509184545 | 70 | 144 | 3.0 | 0.0 | 0.00 | 0.00 | 0.00 | 37 | 1000.8 |
| 20260509183042 | 69 | 107 | 2.0 | 0.0 | 0.00 | 0.00 | 0.00 | 38 | 1000.4 |
| 20260509181540 | 68 | 91 | 2.0 | 0.0 | 0.00 | 0.00 | 0.00 | 37 | 1000.2 |
| 20260509180037 | 68 | 85 | 2.0 | 0.0 | 0.00 | 0.00 | 0.00 | 39 | 999.9 |
| 20260509174538 | 67 | 71 | 4.0 | 0.0 | 0.00 | 0.00 | 0.00 | 40 | 1000.0 |
| 20260509173055 | 67 | 86 | 2.0 | 0.0 | 0.00 | 0.00 | 0.00 | 43 | 1000.0 |
| 20260509171536 | 65 | 60 | 4.0 | 0.0 | 0.00 | 0.00 | 0.00 | 45 | 999.9 |
| 20260509170031 | 64 | 74 | 4.0 | 0.0 | 0.00 | 0.00 | 0.00 | 43 | 1000.0 |
| 20260509164527 | 64 | 156 | 3.0 | 0.0 | 0.00 | 0.00 | 0.00 | 43 | 1000.1 |
| 20260509163026 | 63 | 47 | 3.0 | 0.0 | 0.00 | 0.00 | 0.00 | 42 | 1000.1 |
| 20260509161524 | 61 | 71 | 2.0 | 0.0 | 0.00 | 0.00 | 0.00 | 42 | 1000.0 |
| 20260509160024 | 61 | 58 | 1.0 | 0.0 | 0.00 | 0.00 | 0.00 | 41 | 1000.0 |
| 20260509154523 | 62 | 51 | 1.0 | 0.0 | 0.00 | 0.00 | 0.00 | 41 | 1000.0 |
| 20260509153031 | 61 | 51 | 0.0 | 0.0 | 0.00 | 0.00 | 0.00 | 41 | 999.9 |
| 20260509151522 | 62 | 161 | 1.0 | 0.0 | 0.00 | 0.00 | 0.00 | 38 | 1000.1 |
| 20260509150022 | 62 | 94 | 1.0 | 0.0 | 0.00 | 0.00 | 0.00 | 40 | 1000.4 |
| 20260509144520 | 62 | 110 | 1.0 | 0.0 | 0.00 | 0.00 | 0.00 | 42 | 1000.4 |
| 20260509143020 | 60 | 68 | 1.0 | 0.0 | 0.00 | 0.00 | 0.00 | 44 | 1000.4 |
| 20260509141518 | 59 | 60 | 1.0 | 0.0 | 0.00 | 0.00 | 0.00 | 47 | 1000.5 |
| 20260509140016 | 58 | 91 | 0.0 | 0.0 | 0.00 | 0.00 | 0.00 | 49 | 1000.2 |
| 20260509134513 | 58 | 60 | 0.0 | 0.0 | 0.00 | 0.00 | 0.00 | 48 | 999.4 |
| 20260509133013 | 58 | 61 | 0.0 | 0.0 | 0.00 | 0.00 | 0.00 | 49 | 999.2 |
| 20260509131512 | 58 | 53 | 0.0 | 0.0 | 0.00 | 0.00 | 0.00 | 50 | 999.0 |
| 20260509130037 | 57 | 51 | 0.0 | 0.0 | 0.00 | 0.00 | 0.00 | 54 | 999.2 |
| 20260509124526 | 55 | 60 | 0.0 | 0.0 | 0.00 | 0.00 | 0.00 | 60 | 999.2 |
| 20260509123011 | 53 | 60 | 0.0 | 0.0 | 0.00 | 0.00 | 0.00 | 64 | 999.1 |
| 20260509121510 | 51 | 60 | 0.0 | 0.0 | 0.00 | 0.00 | 0.00 | 68 | 998.8 |
| 20260509120014 | 50 | 60 | 0.0 | 0.0 | 0.00 | 0.00 | 0.00 | 70 | 999.0 |
| 20260509114508 | 50 | 60 | 0.0 | 0.0 | 0.00 | 0.00 | 0.00 | 70 | 999.1 |
| 20260509113008 | 50 | 60 | 0.0 | 0.0 | 0.00 | 0.00 | 0.00 | 70 | 999.0 |
| 20260509111507 | 50 | 60 | 0.0 | 0.0 | 0.00 | 0.00 | 0.00 | 72 | 998.8 |
| 20260509110005 | 51 | 60 | 0.0 | 0.0 | 0.00 | 0.00 | 0.00 | 73 | 998.8 |
| 20260509104502 | 52 | 60 | 0.0 | 0.0 | 0.00 | 0.00 | 0.00 | 73 | 998.8 |
| 20260509103108 | 53 | 60 | 0.0 | 0.0 | 0.00 | 0.00 | 0.00 | 73 | 998.8 |
| 20260509101602 | 54 | 60 | 0.0 | 0.0 | 0.00 | 0.00 | 0.00 | 73 | 998.4 |
| 20260509100055 | 54 | 60 | 0.0 | 0.0 | 0.00 | 0.00 | 0.00 | 73 | 998.3 |
| 20260509094559 | 54 | 60 | 0.0 | 0.0 | 0.00 | 0.00 | 0.00 | 73 | 998.2 |
| 20260509093051 | 55 | 60 | 0.0 | 0.0 | 0.00 | 0.00 | 0.00 | 72 | 998.2 |
| 20260509091553 | 56 | 60 | 0.0 | 0.0 | 0.00 | 0.00 | 0.00 | 73 | 998.3 |
| 20260509090048 | 56 | 39 | 0.0 | 0.0 | 0.00 | 0.00 | 0.00 | 72 | 998.3 |
| 20260509084547 | 57 | 55 | 0.0 | 0.0 | 0.00 | 0.00 | 0.00 | 71 | 998.3 |
| 20260509083043 | 57 | 78 | 2.0 | 0.0 | 0.00 | 0.00 | 0.00 | 71 | 998.2 |
| 20260509081543 | 57 | 43 | 1.0 | 0.0 | 0.00 | 0.00 | 0.00 | 71 | 997.9 |
| 20260509080045 | 57 | 64 | 1.0 | 0.0 | 0.00 | 0.00 | 0.00 | 71 | 997.8 |
| 20260509074540 | 58 | 74 | 1.0 | 0.0 | 0.00 | 0.00 | 0.00 | 70 | 997.8 |
| 20260509073044 | 58 | 69 | 1.0 | 0.0 | 0.00 | 0.00 | 0.00 | 69 | 997.7 |
| 20260509071535 | 58 | 78 | 2.0 | 0.0 | 0.00 | 0.00 | 0.00 | 67 | 997.9 |
| 20260509070032 | 58 | 35 | 0.0 | 0.0 | 0.00 | 0.00 | 0.00 | 66 | 997.9 |
| 20260509064531 | 59 | 50 | 1.0 | 0.0 | 0.00 | 0.00 | 0.00 | 63 | 998.0 |
| 20260509063034 | 59 | 66 | 0.0 | 0.0 | 0.00 | 0.00 | 0.00 | 61 | 998.1 |
| 20260509061530 | 59 | 64 | 1.0 | 0.0 | 0.00 | 0.00 | 0.00 | 59 | 998.4 |
| 20260509060024 | 60 | 47 | 0.0 | 0.0 | 0.00 | 0.00 | 0.00 | 57 | 998.7 |
| 20260509054521 | 61 | 39 | 0.0 | 0.0 | 0.00 | 0.00 | 0.00 | 54 | 998.6 |
| 20260509053018 | 61 | 49 | 0.0 | 0.0 | 0.00 | 0.00 | 0.00 | 53 | 998.8 |
| 20260509051517 | 61 | 47 | 0.0 | 0.0 | 0.00 | 0.00 | 0.00 | 52 | 998.8 |
| 20260509050023 | 62 | 31 | 0.0 | 0.0 | 0.00 | 0.00 | 0.00 | 49 | 999.0 |
| 20260509044513 | 62 | 54 | 1.0 | 0.0 | 0.00 | 0.00 | 0.00 | 47 | 999.0 |
| 20260509043010 | 62 | 83 | 2.0 | 0.0 | 0.00 | 0.00 | 0.00 | 47 | 999.3 |
| 20260509041517 | 61 | 58 | 1.0 | 0.0 | 0.00 | 0.00 | 0.00 | 50 | 999.5 |
| 20260509040006 | 62 | 48 | 0.0 | 0.0 | 0.00 | 0.00 | 0.00 | 49 | 999.5 |
| 20260509034504 | 62 | 58 | 0.0 | 0.0 | 0.00 | 0.00 | 0.00 | 47 | 999.5 |
| 20260509033003 | 62 | 41 | 0.0 | 0.0 | 0.00 | 0.00 | 0.00 | 45 | 999.6 |
| 20260509031509 | 61 | 22 | 0.0 | 0.0 | 0.00 | 0.00 | 0.00 | 42 | 999.6 |
| 20260509030004 | 61 | 332 | 0.0 | 0.0 | 0.00 | 0.00 | 0.00 | 40 | 999.5 |
| 20260509024501 | 61 | 58 | 0.0 | 0.0 | 0.00 | 0.00 | 0.00 | 40 | 999.6 |
| 20260509023116 | 61 | 53 | 0.0 | 0.0 | 0.00 | 0.00 | 0.00 | 39 | 999.6 |
| 20260509021600 | 61 | 56 | 0.0 | 0.0 | 0.00 | 0.00 | 0.00 | 40 | 999.7 |
| 20260509020100 | 62 | 65 | 0.0 | 0.0 | 0.00 | 0.00 | 0.00 | 40 | 999.8 |
| 20260509014558 | 62 | 65 | 0.0 | 0.0 | 0.00 | 0.00 | 0.00 | 39 | 999.9 |
| 20260509013057 | 62 | 65 | 0.0 | 0.0 | 0.00 | 0.00 | 0.00 | 39 | 999.9 |
| 20260509011558 | 63 | 65 | 0.0 | 0.0 | 0.00 | 0.00 | 0.00 | 38 | 1000.0 |
| 20260509004607 | 65 | 66 | 0.0 | 0.0 | 0.00 | 0.00 | 0.00 | 35 | 1000.1 |
| 20260509003101 | 66 | 66 | 0.0 | 0.0 | 0.00 | 0.00 | 0.00 | 32 | 1000.3 |
| 20260509001551 | 67 | 72 | 0.0 | 0.0 | 0.00 | 0.00 | 0.00 | 31 | 1000.5 |
| 20260509000050 | 67 | 72 | 1.0 | 0.0 | 0.00 | 0.00 | 0.00 | 30 | 1000.7 |
| 20260508234551 | 67 | 70 | 1.0 | 0.0 | 0.00 | 0.00 | 0.00 | 29 | 1000.8 |
| 20260508233054 | 68 | 58 | 1.0 | 0.0 | 0.00 | 0.00 | 0.00 | 29 | 1001.0 |
| 20260508231547 | 68 | 65 | 1.0 | 0.0 | 0.00 | 0.00 | 0.00 | 28 | 1001.1 |